• In Czech Republic
  • List of Countries
  • For 7 days
  • Water Temperature
  • Satellite Maps
  • Weather Map
  • Weather Widgets
  • user-avatar
    Login

    Hourly Weather Bregenz

    Today, 27 July, Thursday

    Time Temperature Precipitation Wind Pressure Humidity
    00:00 +5°C° 0 mm 2 mps 644 mmHg 91%
    01:00 +5°C° 0 mm 2 mps 644 mmHg 92%
    02:00 +5°C° 0 mm 2 mps 644 mmHg 90%
    03:00 +5°C° 0 mm 2 mps 644 mmHg 88%
    04:00 +5°C° 0 mm 2 mps 644 mmHg 86%
    05:00 +6°C° 0.1 mm 2 mps 644 mmHg 84%
    06:00 +7°C° 0.1 mm 2 mps 644 mmHg 81%
    07:00 +8°C° 0.1 mm 2 mps 644 mmHg 78%
    08:00 +9°C° 0.1 mm 2 mps 644 mmHg 78%
    09:00 +10°C° 0.1 mm 2 mps 644 mmHg 77%
    10:00 +12°C° 0.1 mm 1 mps 645 mmHg 76%
    11:00 +13°C° 0.1 mm 2 mps 645 mmHg 75%
    12:00 +14°C° 0.1 mm 2 mps 645 mmHg 73%
    13:00 +15°C° 0.1 mm 2 mps 646 mmHg 71%
    14:00 +16°C° 0.1 mm 2 mps 646 mmHg 70%
    15:00 +17°C° 0.1 mm 2 mps 646 mmHg 68%
    16:00 +18°C° 0.1 mm 2 mps 646 mmHg 67%
    17:00 +16°C° 0.7 mm 2 mps 646 mmHg 76%
    18:00 +15°C° 0.7 mm 2 mps 645 mmHg 85%
    19:00 +13°C° 0.7 mm 2 mps 645 mmHg 93%
    20:00 +13°C° 0.3 mm 1 mps 645 mmHg 94%
    21:00 +12°C° 0.3 mm 1 mps 645 mmHg 95%
    22:00 +11°C° 0.3 mm 1 mps 645 mmHg 96%
    23:00 +11°C° 0.1 mm 1 mps 645 mmHg 96%

    Tomorrow, 28 July, Friday

    Time Temperature Precipitation Wind Pressure Humidity
    00:00 +11°C° 0.1 mm 1 mps 645 mmHg 96%
    01:00 +11°C° 0.1 mm 1 mps 645 mmHg 95%
    02:00 +10°C° 0.1 mm 1 mps 645 mmHg 95%
    03:00 +10°C° 0.1 mm 1 mps 645 mmHg 95%
    04:00 +9°C° 0.1 mm 2 mps 645 mmHg 95%
    05:00 +10°C° 0 mm 1 mps 645 mmHg 94%
    06:00 +11°C° 0 mm 1 mps 646 mmHg 93%
    07:00 +12°C° 0 mm 1 mps 646 mmHg 91%
    08:00 +13°C° 0.1 mm 1 mps 647 mmHg 87%
    09:00 +14°C° 0.1 mm 2 mps 647 mmHg 83%
    10:00 +15°C° 0.1 mm 2 mps 648 mmHg 80%
    11:00 +16°C° 0.1 mm 2 mps 648 mmHg 75%
    12:00 +17°C° 0.1 mm 3 mps 648 mmHg 71%
    13:00 +18°C° 0.1 mm 3 mps 648 mmHg 66%
    14:00 +18°C° 0 mm 3 mps 648 mmHg 67%
    15:00 +18°C° 0 mm 3 mps 649 mmHg 67%
    16:00 +19°C° 0 mm 3 mps 649 mmHg 68%
    17:00 +18°C° 0 mm 2 mps 649 mmHg 73%
    18:00 +18°C° 0 mm 1 mps 649 mmHg 78%
    19:00 +16°C° 0 mm 1 mps 649 mmHg 83%
    20:00 +15°C° 0 mm 1 mps 649 mmHg 86%
    21:00 +13°C° 0 mm 1 mps 649 mmHg 89%
    22:00 +12°C° 0 mm 1 mps 649 mmHg 93%
    23:00 +11°C° 0 mm 1 mps 648 mmHg 93%

    Day after tomorrow, 29 July, Saturday

    Time Temperature Precipitation Wind Pressure Humidity
    00:00 +11°C° 0 mm 1 mps 648 mmHg 93%
    01:00 +11°C° 0 mm 1 mps 648 mmHg 93%
    02:00 +11°C° 0 mm 1 mps 648 mmHg 93%
    03:00 +11°C° 0 mm 1 mps 648 mmHg 92%
    04:00 +11°C° 0 mm 1 mps 648 mmHg 92%
    05:00 +12°C° 0 mm 1 mps 648 mmHg 88%
    06:00 +13°C° 0 mm 1 mps 649 mmHg 85%
    07:00 +15°C° 0 mm 1 mps 649 mmHg 82%
    08:00 +18°C° 0 mm 1 mps 650 mmHg 75%
    09:00 +20°C° 0 mm 1 mps 651 mmHg 67%
    10:00 +22°C° 0 mm 1 mps 651 mmHg 60%
    11:00 +22°C° 0.3 mm 1 mps 651 mmHg 59%
    12:00 +23°C° 0.3 mm 2 mps 651 mmHg 58%
    13:00 +23°C° 0.3 mm 2 mps 651 mmHg 56%
    14:00 +23°C° 1.2 mm 1 mps 651 mmHg 60%
    15:00 +23°C° 1.2 mm 1 mps 651 mmHg 64%
    16:00 +23°C° 1.2 mm 1 mps 651 mmHg 67%
    17:00 +21°C° 0.8 mm 1 mps 650 mmHg 72%
    18:00 +20°C° 0.8 mm 1 mps 650 mmHg 77%
    19:00 +17°C° 0.8 mm 0 mps 650 mmHg 82%
    20:00 +18°C° 0.3 mm 1 mps 650 mmHg 83%
    21:00 +16°C° 0.3 mm 1 mps 650 mmHg 84%
    22:00 +15°C° 0.3 mm 1 mps 650 mmHg 85%
    23:00 +15°C° 0.2 mm 2 mps 649 mmHg 85%

    30 July, Sunday

    Time Temperature Precipitation Wind Pressure Humidity
    00:00 +15°C° 0.2 mm 2 mps 649 mmHg 86%
    01:00 +14°C° 0.2 mm 2 mps 649 mmHg 86%
    02:00 +14°C° 0.1 mm 2 mps 648 mmHg 86%
    03:00 +14°C° 0.1 mm 2 mps 648 mmHg 86%
    04:00 +13°C° 0.1 mm 2 mps 648 mmHg 85%
    05:00 +14°C° 0.1 mm 2 mps 648 mmHg 84%
    06:00 +15°C° 0.1 mm 2 mps 648 mmHg 83%
    07:00 +16°C° 0.1 mm 2 mps 649 mmHg 82%
    08:00 +18°C° 0.3 mm 2 mps 649 mmHg 76%
    09:00 +19°C° 0.3 mm 2 mps 650 mmHg 70%
    10:00 +21°C° 0.3 mm 2 mps 650 mmHg 63%
    11:00 +21°C° 0.5 mm 2 mps 650 mmHg 63%
    12:00 +23°C° 0.5 mm 1 mps 650 mmHg 63%
    13:00 +23°C° 0.5 mm 1 mps 650 mmHg 63%
    14:00 +23°C° 0.9 mm 1 mps 650 mmHg 65%
    15:00 +23°C° 0.9 mm 1 mps 650 mmHg 66%
    16:00 +23°C° 0.9 mm 1 mps 649 mmHg 68%
    17:00 +22°C° 0.9 mm 1 mps 649 mmHg 74%
    18:00 +20°C° 0.9 mm 1 mps 649 mmHg 80%
    19:00 +19°C° 0.9 mm 1 mps 649 mmHg 86%
    20:00 +18°C° 0.9 mm 1 mps 649 mmHg 87%
    21:00 +16°C° 0.9 mm 1 mps 649 mmHg 88%
    22:00 +15°C° 0.9 mm 1 mps 649 mmHg 90%
    23:00 +14°C° 0.2 mm 1 mps 649 mmHg 90%

    31 July, Monday

    Time Temperature Precipitation Wind Pressure Humidity
    00:00 +14°C° 0.2 mm 1 mps 648 mmHg 90%
    01:00 +13°C° 0.2 mm 1 mps 648 mmHg 90%
    02:00 +13°C° 0 mm 1 mps 648 mmHg 89%
    03:00 +13°C° 0 mm 1 mps 648 mmHg 89%
    04:00 +13°C° 0 mm 1 mps 648 mmHg 88%
    05:00 +14°C° 0 mm 1 mps 648 mmHg 86%
    06:00 +15°C° 0 mm 1 mps 649 mmHg 85%
    07:00 +16°C° 0 mm 1 mps 649 mmHg 83%
    08:00 +19°C° 0 mm 1 mps 650 mmHg 74%
    09:00 +21°C° 0 mm 1 mps 650 mmHg 65%
    10:00 +24°C° 0 mm 1 mps 651 mmHg 56%
    11:00 +25°C° 0 mm 1 mps 651 mmHg 52%
    12:00 +26°C° 0 mm 2 mps 651 mmHg 49%
    13:00 +27°C° 0 mm 2 mps 651 mmHg 46%
    14:00 +27°C° 0 mm 2 mps 650 mmHg 48%
    15:00 +27°C° 0 mm 2 mps 650 mmHg 49%
    16:00 +27°C° 0 mm 2 mps 650 mmHg 51%
    17:00 +25°C° 0.1 mm 2 mps 650 mmHg 59%
    18:00 +23°C° 0.1 mm 2 mps 649 mmHg 66%
    19:00 +21°C° 0.1 mm 2 mps 649 mmHg 74%
    20:00 +20°C° 0.1 mm 2 mps 649 mmHg 77%
    21:00 +18°C° 0.1 mm 2 mps 648 mmHg 79%
    22:00 +17°C° 0.1 mm 2 mps 648 mmHg 81%
    23:00 +16°C° 0.1 mm 2 mps 648 mmHg 82%

    1 August, Tuesday

    Time Temperature Precipitation Wind Pressure Humidity
    00:00 +16°C° 0.1 mm 2 mps 648 mmHg 82%
    01:00 +16°C° 0.1 mm 2 mps 648 mmHg 82%
    02:00 +15°C° 0.4 mm 2 mps 648 mmHg 83%
    03:00 +15°C° 0.4 mm 2 mps 648 mmHg 83%
    04:00 +14°C° 0.4 mm 2 mps 648 mmHg 84%
    05:00 +15°C° 0 mm 2 mps 648 mmHg 82%
    06:00 +16°C° 0 mm 2 mps 648 mmHg 80%
    07:00 +17°C° 0 mm 2 mps 648 mmHg 78%
    08:00 +19°C° 0 mm 2 mps 649 mmHg 70%
    09:00 +21°C° 0 mm 2 mps 649 mmHg 63%
    10:00 +24°C° 0 mm 2 mps 649 mmHg 55%
    11:00 +24°C° 0 mm 2 mps 649 mmHg 54%
    12:00 +25°C° 0 mm 2 mps 649 mmHg 53%
    13:00 +25°C° 0 mm 3 mps 649 mmHg 52%
    14:00 +24°C° 1.5 mm 3 mps 649 mmHg 59%
    15:00 +22°C° 1.5 mm 4 mps 648 mmHg 66%
    16:00 +21°C° 1.5 mm 4 mps 648 mmHg 73%
    17:00 +18°C° 3.7 mm 4 mps 648 mmHg 80%
    18:00 +16°C° 3.7 mm 3 mps 648 mmHg 88%
    19:00 +13°C° 3.7 mm 3 mps 648 mmHg 96%
    20:00 +13°C° 0.7 mm 2 mps 649 mmHg 95%
    21:00 +13°C° 0.7 mm 2 mps 649 mmHg 95%
    22:00 +13°C° 0.7 mm 1 mps 650 mmHg 95%
    23:00 +12°C° 0 mm 1 mps 650 mmHg 95%
    Show more